Regional Weather Roundup
Issued by NWS

Home | Current Version | Previous Version | Graphics & Text | Print | Product List | Glossary On
Versions: 1 2 3 4 5 6 7 8 9 10 11 12 13 14 15 16 17 18 19 20 21 22 23 24 25 26 27 28 29 30 31 32 33 34 35 36 37 38 39 40 41 42 43 44 45 46 47 48 49 50
000
ASUS43 KLOT 291408
RWRIL

ILLINOIS REGIONAL WEATHER ROUNDUP
NATIONAL WEATHER SERVICE CHICAGO/ROMEOVILLE IL
900 AM CDT FRI APR 29 2016

NOTE: "FAIR" INDICATES FEW OR NO CLOUDS BELOW 12,000 FEET WITH NO
SIGNIFICANT WEATHER AND/OR OBSTRUCTIONS TO VISIBILITY.

* THESE STATIONS ARE NOT UNDER NWS QUALITY CONTROL. THEY ALSO MAY NOT
  REPORT WEATHER SUCH AS PRECIPITATION OR FOG.

ILZ001-002-007-009-015-016-024-291500-
NORTHWEST ILLINOIS

CITY           SKY/WX    TMP DP  RH WIND       PRES   REMARKS
MOLINE         CLOUDY    46  40  79 N9        30.07S
STERLING*      CLOUDY    45  39  81 NE9       30.08R
SAVANNA*       CLOUDY    44  39  81 N10       30.08F
$$

ILZ003-004-008-010-011-017-018-291500-
NORTH CENTRAL ILLINOIS

CITY           SKY/WX    TMP DP  RH WIND       PRES   REMARKS
ROCKFORD       CLOUDY    44  38  79 N14       30.09F
FREEPORT*      CLOUDY    42  37  84 N13       30.09F
ROCHELLE*      CLOUDY    43  39  88 N12       30.06F
DE KALB*       CLOUDY    42  40  92 N15       30.06F
$$

ILZ005-006-012>014-019>023-291500-
NORTHEAST ILLINOIS

CITY           SKY/WX    TMP DP  RH WIND       PRES   REMARKS
CHICAGO-OHARE  CLOUDY    43  39  86 N12       30.06F
CHICAGO-MIDWAY CLOUDY    45  39  79 N13       30.05F
AURORA         CLOUDY    45  41  86 N12       30.06F FOG
LANSING*       CLOUDY    43  41  91 NE13      30.05F FOG
JOLIET*        CLOUDY    47  43  86 N10       30.06S
WAUKEGAN       CLOUDY    42  39  89 N8        30.07F
DUPAGE AIRPORT CLOUDY    43  39  86 N15       30.05F
KANKAKEE*      CLOUDY    49  44  81 N9        30.07R
WHEELING       CLOUDY    43  39  86 N10       30.08F
MORRIS*        CLOUDY    45  41  86 CALM      30.07R
ROMEOVILLE*    CLOUDY    44  41  88 NE9       30.06S
NORTHERLY ISL    N/A     42  40  92 MISG        N/A
NORTHERLY ISL    N/A     42  40  92 MISG        N/A
$$

LMZ740>746-291500-
SOUTHERN LAKE MICHIGAN

STATION/POSITION SKY/WX   TEMP    WIND        PRES    VSBY  WAVE
                          AIR SEA DIR/SP/G                  HT/PER
                          (F)     (DEG/KT/KT) (MB)    (MI)  (FT/S)
SOUTHERN BUOY              40 40   30/  8/ 10 1018.9S         1/ 3
HARRISON CRIB              42     360/ 16/ 17   N/A
BURNHAM HARBOR             42      10/ 13/ 15   N/A
CALUMET HARBOR             42     340/ 12/ 14 1017.9S
BURNS HARBOR               42     330/ 14/ 19 1018.6S
MICHIGAN CITY              41     270/ 13/ 14   N/A
ST. JOSEPH                 44 46     CALM       N/A           1/ 2
$$

ILZ025>027-034>036-040-047-049-050-058-095>099-291500-
WEST-CENTRAL ILLINOIS

CITY           SKY/WX    TMP DP  RH WIND       PRES   REMARKS
QUINCY         CLOUDY    51  47  86 N6        30.09R
GALESBURG*     CLOUDY    46  43  90 NE10      30.07R
MACOMB*        CLOUDY    48  46  94 NE13      30.09R FOG
JACKSONVILLE*  CLOUDY    54  48  81 N3        30.09R
PITTSFIELD*    CLOUDY    51  49  92 CALM      30.10R
$$

ILZ028>032-037-038-041>044-048-051>054-059>061-291500-
CENTRAL ILLINOIS

CITY           SKY/WX    TMP DP  RH WIND       PRES   REMARKS
PONTIAC        CLOUDY    49  47  92 N7        30.08R FOG
BLOOMINGTON    CLOUDY    48  47  97 NE10      30.08R FOG
DECATUR        CLOUDY    53  48  83 NE13      30.06R
PEORIA         CLOUDY    49  43  80 NE8       30.07R
LACON*         CLOUDY    47  42  84 N3        30.08R
LINCOLN*       CLOUDY    52  49  89 N10       30.06R FOG
SPRINGFIELD    CLOUDY    55  50  83 N6        30.07R
TAYLORVILLE    CLOUDY    54  50  87 NE3       30.08R
$$

ILZ033-039-045-046-055>057-062-063-291500-
EAST-CENTRAL ILLINOIS

CITY           SKY/WX    TMP DP  RH WIND       PRES   REMARKS
CHAMPAIGN      CLOUDY    52  49  89 N13       30.07R FOG
RANTOUL*       CLOUDY    54  49  83 N9        30.07S
MATTOON        MOSUNNY   58  50  75 NE7       30.05S
PARIS*         PTSUNNY   56  51  82 NW5       30.07R
$$

ILZ079-100>102-291500-
SOUTHWEST ILLINOIS

CITY           SKY/WX    TMP DP  RH WIND       PRES   REMARKS
ALTON          CLOUDY    54  48  82 N6        30.07R
BELLEVILLE     CLOUDY    58  52  81 NE8       30.03F
CAHOKIA*       CLOUDY    58  49  72 NE10      30.04F
SPARTA*        CLOUDY    56  50  79 NE7       30.05S
$$

ILZ064>066-069>071-074>076-080>082-084>086-088>090-092>094-291500-
SOUTH-CENTRAL ILLINOIS

CITY           SKY/WX    TMP DP  RH WIND       PRES   REMARKS
CARBONDALE     CLOUDY    59  51  75 NE6       30.03F
CAIRO*         CLOUDY    60  52  75 NE12      30.01F
EFFINGHAM*     MOSUNNY   57  53  89 CALM      30.09R
MARION         MOSUNNY   61  54  77 NE12      30.04F
MT. VERNON     CLOUDY    57  48  72 NE5       30.06F
CENTRALIA*     PTSUNNY   58  53  83 NE6       30.05F
SALEM*         PTSUNNY   58  51  75 NE8       30.07R
METROPOLIS*    CLOUDY    62  54  74 CALM      30.04S
$$

ILZ067-068-072-073-078-083-087-091-291500-
SOUTHEAST ILLINOIS

CITY           SKY/WX    TMP DP  RH WIND       PRES   REMARKS
LAWRENCEVILLE  SUNNY     59  51  75 CALM      30.08R
FLORA*         SUNNY     59  52  77 N5        30.07R
FAIRFIELD*     MOSUNNY   59  51  76 NE3       30.05S
HARRISBURG*    CLOUDY    60  53  75 E7        30.06S
ROBINSON*      CLOUDY    57  53  84 NW3       30.07R
CARMI*         CLOUDY    61  53  76 E5        30.05F
$$

ABBREVIATIONS USED IN REMARKS
   TC - TEMPERATURE IN CELSIUS
  WCI - WIND CHILL INDEX
   HX - HEAT INDEX
  VSB - VISIBILITY
$$




USA.gov is the U.S. government's official web portal to all federal, state and local government web resources and services.